Regional Weather Roundup
Issued by NWS

Home | Current Version | Previous Version | Graphics & Text | Print | Product List | Glossary Off
Versions: 1 2 3 4 5 6 7 8 9 10 11 12 13 14 15 16 17 18 19 20 21 22 23 24 25 26 27 28 29 30 31 32 33 34 35 36 37 38 39 40 41 42 43 44 45 46 47 48 49 50

000
ASUS44 KFWD 202215
RWRTX
NORTH TEXAS HOURLY WEATHER ROUNDUP
NATIONAL WEATHER SERVICE FORT WORTH TX
500 PM CDT WED SEP 20 2017

NOTE: "FAIR" INDICATES FEW OR NO CLOUDS BELOW 12,000 FEET WITH NO
SIGNIFICANT WEATHER AND/OR OBSTRUCTIONS TO VISIBILITY.

TXZ118-119-202300-
DALLAS/FORT WORTH METROPLEX

CITY           SKY/WX    TMP DP  RH WIND       PRES   REMARKS
DFW AIRPORT    MOSUNNY   98  69  38 S16G24    29.79F HX 104
DALLAS LOVE    MOSUNNY   95  70  44 S15       29.80F HX 101
FTW MEACHAM    SUNNY     98  71  41 S15G28    29.79F HX 106
DAL-EXECUTIVE  MOSUNNY   95  70  44 SE14G24   29.81F HX 101
FTW-ALLIANCE   MOSUNNY   96  70  42 S16G22    29.79F HX 102
FTW-NAS-JRB    SUNNY     98  68  37 S16G26    29.79F HX 103
FTW-SPINKS     MOSUNNY   97  68  38 SE16      29.82F HX 101
ARLINGTON      SUNNY     96  71  44 S15G26    29.80F HX 103
GRAND PRAIRIE  SUNNY     97  66  36 S13G18    29.82F HX 100
ADDISON        MOSUNNY   97  68  38 S15G23    29.81F HX 101
MESQUITE       MOSUNNY   97  68  38 S15G21    29.83F HX 101
LANCASTER      MOSUNNY   96  70  42 S10G21    29.83F HX 103
$$

TXZ091>094-102>105-117-120-121-131>134-202300-
NORTH CENTRAL TEXAS

CITY           SKY/WX    TMP DP  RH WIND       PRES   REMARKS
SHRMAN/DENISON SUNNY     94  71  47 S16G23    29.83S HX 101
GAINESVILLE    MOSUNNY   94  70  46 S14       29.82F HX 100
BOWIE          SUNNY     94  71  47 SE10G17   29.80F HX 101
BRIDGEPORT     SUNNY     95  68  40 S14       29.80F HX  99
DECATUR        MOSUNNY   95  70  43 SE13G20   29.80S HX 101
DENTON         MOSUNNY   96  73  47 S18G26    29.80F HX 105
MCKINNEY       SUNNY     93  73  52 SE18      29.82S HX 102
BONHAM         SUNNY     91  72  52 SE16      29.84S HX  98
GREENVILLE     PTSUNNY   97  70  41 SE13G18   29.84F HX 103
ROCKWALL       MOSUNNY   94  73  49 SE14G21   29.83F HX 103
TERRELL        SUNNY     95  69  42 S16       29.84F HX 100
WAXAHACHIE     PTSUNNY   96  70  42 S14G20    29.83F HX 102
CLEBURNE       SUNNY     95  70  43 S15G24    29.83F HX 101
GRANBURY       SUNNY     99  66  33 S14       29.80S HX 103
$$

TXZ083>090-098>101-113>116-127>130-139>142-154-155-202300-
WESTERN NORTH TEXAS

CITY           SKY/WX    TMP DP  RH WIND       PRES   REMARKS
WICHITA FALLS  MOSUNNY   97  71  42 SE16      29.75F HX 104
WF-KICKAPOO    SUNNY     98  72  42 S13       29.77F HX 106
VERNON         SUNNY     96  57  26 NW10      29.77S HX  95
ABILENE        SUNNY     99  61  28 S14G21    29.79F HX  99
ABILENE-DYESS  MOSUNNY  101  64  29 S15       29.77F HX 103
GRAHAM         MOSUNNY   98  65  34 S5        29.75F HX 101
BRECKENRIDGE   MOSUNNY  101  63  28 S9G18     29.77F HAZE    HX 102
CISCO          SUNNY     99  66  34 S9G16     29.82F HAZE    HX 102
EASTLAND       MOSUNNY   98  68  37 S13G21    29.80F HX 103
RANGER         MOSUNNY   96  66  37 S15G22    29.81F HX  99
MINERAL WELLS  MOSUNNY   99  66  33 S15G24    29.77F HX 103
STEPHENVILLE   SUNNY     97  63  31 S10G17    29.84F HX  99
COMANCHE       MOSUNNY   99  66  34 S10       29.82S HX 103
BROWNWOOD      LGT RAIN  99  64  32 S13G18    29.81F HX 101
COLEMAN        SUNNY     97  65  34 S13G20    29.82F HX  99
$$

TXZ143>147-156>162-174-175-202300-
CENTRAL TEXAS

CITY           SKY/WX    TMP DP  RH WIND       PRES   REMARKS
WACO           SUNNY     97  69  40 S16       29.82F HX 103
WACO-TSTC      MOSUNNY   95  68  41 S18       29.83F HX  99
WACO-MCGREGOR  SUNNY     97  71  42 SE18      29.83S HX 104
HILLSBORO      MOSUNNY   97  71  43 SE17G24   29.83F HX 104
CORSICANA      SUNNY     94  71  47 S18       29.85F HX 101
MEXIA          MOSUNNY   92  70  48 SE13G23   29.84F HX  98
HEARNE         MOSUNNY   93  71  48 SE12      29.85F HX 100
CAMERON        PTSUNNY   94  72  49 S8        29.84S HX 102
TEMPLE         SUNNY     94  72  48 S17G24    29.83F HX 102
KILLEEN        MOSUNNY   94  69  45 SE15G25   29.82F HX  99
FORT HOOD      SUNNY     94  70  46 S14       29.80F HX 100
GATESVILLE     SUNNY     95  70  43 S9G16     29.84F HX 101
HAMILTON       MOSUNNY   98  65  33 S15G21    29.84F HX 101
$$

TXZ095>097-106>112-122>126-135>138-148>153-164>167-202300-
EAST TEXAS

CITY           SKY/WX    TMP DP  RH WIND       PRES   REMARKS
PARIS          PTSUNNY   92  73  53 S15       29.86S HX 100
SULPHUR SPRNGS MOSUNNY   93  69  44 SE14      29.87S HX  98
MOUNT PLEASANT SUNNY     93  70  47 SE7       29.87F HX  98
GILMER         SUNNY     92  69  45 S8        29.87F HX  97
MINEOLA        SUNNY     91  72  52 SE10      29.85F HX  98
TYLER          SUNNY     93  67  42 S14       29.87F HX  96
LONGVIEW       MOSUNNY   93  71  48 S8        29.86F HX 100
MARSHALL       SUNNY     92  70  47 S8        29.90S HX  98
ATHENS         MOSUNNY   93  68  43 SE14      29.84S HX  97
PALESTINE      PTSUNNY   93  71  47 S12       29.88S HX 100
JACKSONVILLE   SUNNY     91  71  51 S7        29.91S HX  97
HENDERSON      MOSUNNY   93  69  45 S8G16     29.89S HX  98
CENTER         MOCLDY    93  76  56 SE12      29.92R HX 105
NACOGDOCHES    MOSUNNY   89  74  60 S9        29.90S HX  98
LUFKIN         CLOUDY    89  76  65 S8        29.90R HX 100
$$

SUPPLEMENTAL OBSERVATIONS (NWS FORT WORTH AREA)

CITY           SKY/WX    TMP DP  RH WIND       PRES   REMARKS
DENISON DAM      N/A     93  72  49 SE9         N/A  HX 100
PAT MAYSE LAKE   N/A     90  72  55 SE13        N/A  HX  96
GREENVILLE       N/A     93  70  46 S9G17       N/A  HX  99
CEDAR HILL       N/A     95  68  41 S12G21      N/A  HX  99
POSSUM KINGDOM   N/A    100  66  32 S13         N/A  HX 104
GRANBURY         N/A     99  66  34 S15G24      N/A  HX 102
COMANCHE         N/A     99  64  32 S10G18      N/A  HX 101
MCGREGOR         N/A     93  66  40 S17G25      N/A  HX  96
TEMPLE           N/A     93  68  43 S10G18      N/A  HX  97
LAKE LIMESTONE   N/A     91  68  46 S9G17       N/A  HX  95
ATHENS           N/A     91  66  43 S13         N/A  HX  94
$$

SUPPLEMENTAL OBSERVATIONS (NWS NORMAN AREA)

CITY           SKY/WX    TMP DP  RH WIND       PRES   REMARKS
ODELL            N/A     93  64  37 NW7       29.79S HX  95
CROWELL          N/A     98  54  23 NW15      29.78F HX  95
KNOX CITY        N/A    104  42  12 SW12      29.75F HX  99
SEYMOUR          N/A    101  55  21 S9        29.74F HX  99
MILLERS CREEK    N/A    102  52  18 SW14        N/A  HX 100
$$

SUPPLEMENTAL OBSERVATIONS (NWS SAN ANGELO AREA)

CITY           SKY/WX    TMP DP  RH WIND       PRES   REMARKS
WEINERT          N/A    101  52  19 SW10      29.76S HX  98
HASKELL          N/A    103  45  14 SW9       29.76F HX  99
THROCKMORTON     N/A    102  63  27 SW7       29.77S HX 105
STAMFORD         N/A    103  59  23 W9        29.77F HX 103
CLYDE            N/A     98  65  32 S9        29.82F HX 101
HAMBY            N/A    100  59  25 S12         N/A  HX 100
IVIE RESERVOIR   N/A    100  63  28 S9G17       N/A  HX 102
COLORADO BEND    N/A     95  66  38 SE13G25     N/A  HX  98
$$

SUPPLEMENTAL OBSERVATIONS (NWS SHREVEPORT AREA)

CITY           SKY/WX    TMP DP  RH WIND       PRES   REMARKS
CLARKSVILLE      N/A     91  66  43 S13         N/A  HX  94
TEXARKANA        N/A     95  72  46 S2          N/A  HX 103
LINDEN           N/A     95  68  41 S6G14       N/A  HX  99
CADDO LAKE       N/A     93  68  43 SW3         N/A  HX  97
GILMER           N/A     93  68  43 SW3G14      N/A  HX  97
HENDERSON        N/A     93  68  43 S10         N/A  HX  97
LUFKIN           N/A     91  73  55 MISG        N/A  HX 100
N SABINE NF      N/A     77  72  83 MISG        N/A
S SABINE NF      N/A     75  73  94 SW2         N/A
$$

SUPPLEMENTAL OBSERVATIONS ARE A COLLECTION OF AUTOMATED INSTRUMENTS
THAT ARE MAINTAINED BY A VARIETY OF FEDERAL AND STATE AGENCIES.
CERTAIN ELEMENTS...SUCH AS HUMIDITY VALUES AND SUSTAINED WIND
SPEEDS...MAY BE APPROXIMATED.





USA.gov is the U.S. government's official web portal to all federal, state and local government web resources and services.